Simultaneous Nadir Overpasses (SNOs) Predictions

Prediction of SNOs between NOAA-15 and METOP-C Satellite Orbit:

Table of predicted SNOs for the next 14.0 days since TLE Epoch: 8/22/2022
Index Date (NOAA-15) Time (NOAA-15) Lat,Lon (NOAA-15) SZA (NOAA-15 ) Date (METOP-C) Time (METOP-C) Lat,Lon (METOP-C) SZA (METOP-C ) Distance(km) Time Diff (sec)
1 09/04/2022 15:30:01 81.07, -14.35 75.99 09/04/2022 15:28:51 81.08, -14.19 75.98 2.95 70
2 09/04/2022 16:20:34 -81.08, 152.77 104.02 09/04/2022 16:19:32 -81.07, 152.82 104.05 1.68 62
3 09/04/2022 17:11:03 81.08, -39.73 76.01 09/04/2022 17:10:13 81.08, -39.71 75.99 0.46 50
4 09/04/2022 18:01:35 -81.07, 127.76 103.98 09/04/2022 18:00:53 -81.08, 127.68 104.00 1.51 42
5 09/04/2022 18:52:05 81.08, -65.11 76.02 09/04/2022 18:51:35 81.07, -65.22 75.99 2.38 30
6 09/04/2022 19:42:37 -81.08, 102.38 103.96 09/04/2022 19:42:14 -81.09, 102.54 103.95 2.89 23
7 09/04/2022 20:33:07 81.09, -90.50 76.04 09/04/2022 20:32:56 81.08, -90.36 76.04 2.63 11
8 09/04/2022 21:23:39 -81.08, 77.01 103.94 09/04/2022 21:23:36 -81.08, 77.03 103.94 0.47 3
9 09/04/2022 22:14:08 81.08,-115.51 76.08 09/04/2022 22:14:17 81.09,-115.50 76.09 0.80 9
10 09/04/2022 23:04:41 -81.09, 51.63 103.92 09/04/2022 23:04:58 -81.07, 51.52 103.94 2.56 17
11 09/04/2022 23:55:10 81.08,-140.89 76.10 09/04/2022 23:55:39 81.08,-141.02 76.10 2.28 29
12 09/05/2022 00:45:43 -81.09, 26.26 103.90 09/05/2022 00:46:19 -81.08, 26.38 103.89 2.44 36
13 09/05/2022 01:36:12 81.09,-166.27 76.12 09/05/2022 01:37:00 81.09,-166.16 76.15 1.96 48
14 09/05/2022 02:26:44 -81.08, 1.25 103.86 09/05/2022 02:27:40 -81.09, 1.23 103.83 0.78 56



Historial Predications of SNOs between NOAA-15 and METOP-C
